www.pogodaiklimat.ru

Погода и климат >> Архив погоды >> Кабо-Верде >> Сал


ПОГОДА в Сале

  • Прогноз погоды в Сале
  • Монитор погоды в Сале

АРХИВ ПОГОДЫ в Сале

Время (UTC), дата Ветер
(напр.,м/с)
 
Видим.   Явления Облачность Т
(С)
Тd
(С)
f
(%)
Тe
(С)
Тes
(С)
Комфортность P
(гПа)
Po
(гПа)
Тmin
(С)
Tmax
(С)
R
(мм)
R24
(мм)
S
(см)
21 18.08 В 4 12 км 8/8 400 м
[Cu Sc]
+26.6 +23.3 82 +36 +36 очень
душно
1012.9 1006.8
00 19.08 СВ 2 10 км 9/5 400 м
[Cu med, cong Ac trans Ci sp]
+25.8 +23.3 86 +35 +35 очень
душно
1014.7 1008.6
03 19.08 СВ 2 10 км 4/4 400 м
[Cu med, cong Ac trans Ci fib]
+25.3 +22.8 86 +33 +33 очень
душно
1012.9 1006.8
06 19.08 В 2 10 км 4/4 400 м
[Cu med, cong Ac trans Ci fib]
+25.1 +22.8 87 +33 +33 очень
душно
1012.4 1006.3 +22.8
09 19.08 В 4 12 км 8/8 400 м
[Cu Sc Ac trans]
+26.6 +23.3 82 +36 +36 очень
душно
1014.3 1008.2
12 19.08 12 км 9/5 420 м
[Cu med, cong Ac trans Ci sp]
+29.0 +23.0 70 1015.1 1009.0
15 19.08 15 км 6/4 420 м
[Cu med, cong Ci sp]
+32.1 +22.5 57 1013.4 1007.4
18 19.08 С 6 15 км 8/3 420 м
[Cu med, cong Ci sp]
+28.6 +22.6 70 +38 +39 очень
душно
1012.2 1006.1 +30.8
21 19.08 С 5 12 км 9/5 420 м
[Cu med, cong Ac trans Ci fib]
+27.2 +22.8 77 +36 +36 очень
душно
1013.5 1007.4
00 20.08 С 6 12 км 6/5 420 м
[Cu med, cong Ac trans]
+26.5 +23.0 81 +35 +35 очень
душно
1014.2 1008.1
03 20.08 СВ 3 12 км 8/8 420 м
[Cu med, cong Ac trans]
+26.3 +23.0 82 +35 +35 очень
душно
1012.8 1006.7
06 20.08 С 4 12 км 8/5 420 м
[Cu med, cong Ac trans]
+25.7 +23.0 85 +34 +34 очень
душно
1012.7 1006.6 +23.4
09 20.08 С 4 12 км 6/5 420 м
[Cu med, cong Ac trans]
+27.0 +23.0 79 +36 +37 очень
душно
1013.6 1007.5
12 20.08 С 6 15 км 6/6 420 м
[Cu med, cong]
+28.6 +22.8 71 +38 +41 очень
душно
1014.2 1008.1
15 20.08 С 5 15 км 6/6 420 м
[Cu med, cong]
+31.2 +22.2 59 +40 +44 очень
душно
1012.4 1006.4
18 20.08 СЗ 6 15 км 9/6 420 м
[Cu med, cong Ac trans]
+28.2 +22.4 71 +37 +37 очень
душно
1011.8 1005.7 +30.9
21 20.08 С 6 12 км 10/6 420 м
[Cu med, cong Ac trans]
+26.5 +22.6 79 +35 +35 очень
душно
1012.2 1006.1
00 21.08 С 5 10 км 9/5 <50 м
[Cu med, cong Ac trans]
+24.8 +21.5 82 +32 +32 очень
душно
1013.9 1007.8
03 21.08 С 4 10 км 6/4 420 м
[Cu med, cong Ac trans Ci fib]
+25.0 +21.7 82 +32 +32 очень
душно
1012.9 1006.8
06 21.08 С 4 10 км 5/5 420 м
[Cu med, cong Ac trans]
+24.6 +21.9 85 +32 +32 очень
душно
1012.2 1006.1 +22.4
09 21.08 С 7 10 км 6/6 420 м
[Cu med, cong Ac trans]
+25.9 +21.6 77 +33 +33 очень
душно
1012.1 1006.0
12 21.08 С 7 10 км 4/4 420 м
[Cu med, cong]
+29.0 +21.8 65 +37 +40 очень
душно
1012.5 1006.4
15 21.08 С 8 10 км 5/5 420 м
[Cu med, cong Ci sp]
+30.8 +21.6 58 +39 +41 очень
душно
1010.8 1004.8
18 21.08 СВ 7 10 км 6/6 420 м
[Cu med, cong Ci fib]
+28.0 +21.8 69 +36 +36 очень
душно
1010.5 1004.4 +30.3
21 21.08 СВ 5 10 км 6/6 420 м
[Cu med, cong Ci fib]
+26.0 +21.0 74 +33 +33 очень
душно
1011.2 1005.1
00 22.08 С 5 10 км 6/6 420 м
[Cu med, cong]
+25.2 +21.3 79 +32 +32 очень
душно
1012.0 1005.9
03 22.08 С 5 10 км 6/6 420 м
[Cu med, cong]
+24.6 +21.1 81 +31 +31 очень
душно
1010.5 1004.4
06 22.08 С 5 9000 м 6/6 420 м
[Cu med, cong]
+24.2 +21.1 83 +31 +31 очень
душно
1010.3 1004.2 +22.5
09 22.08 С 7 10 км 4/4 420 м
[Cu med, cong]
+26.1 +20.2 70 +32 +33 очень
душно
1010.9 1004.8
12 22.08 С 8 12 км 8/8 420 м
[Cu med, cong]
+27.5 +19.6 62 +33 +34 очень
душно
1011.3 1005.2
15 22.08 С 7 12 км 9/9 400 м
[Cu Sc]
+28.5 +19.4 58 +34 +35 очень
душно
1010.1 1004.1
18 22.08 С 7 10 км 9/8 420 м
[Cu Sc Ac trans]
+26.8 +19.4 64 +32 +33 очень
душно
1009.7 1003.6 +28.4
21 22.08 СВ 5 10 км 9/9 420 м
[Cu Sc Ac trans]
+25.8 +19.9 70 +32 +32 очень
душно
1010.4 1004.3
00 23.08 СВ 4 10 км 9/9 420 м
[Cu Sc]
+25.4 +20.9 76 +32 +32 очень
душно
1011.5 1005.4
03 23.08 СВ 3 9000 м в посл. час дождь 9/9 420 м
[Cu Sc]
+25.2 +21.5 80 +32 +32 очень
душно
1010.6 1004.5
06 23.08 СВ 4 9000 м пыль 9/4 420 м
[Cu Sc]
+25.0 +20.7 77 +31 +31 очень
душно
1010.5 1004.4 +22.6 0.0
09 23.08 СВ 3 3500 м слаб. морось 10/9 540 м
[Cu Sc Ac trans]
+24.2 +21.7 86 +31 +31 очень
душно
1012.6 1006.5
12 23.08 СВ 4 9000 м пыль {морось, метель} 9/9 420 м
[Cu Sc Ac trans]
+26.6 +21.8 75 +34 +35 очень
душно
1012.2 1006.1 0.0
15 23.08 В 4 10 км 9/9 450 м
[Cu Sc]
+29.0 +21.3 63 +37 +38 очень
душно
1011.0 1005.0
18 23.08 Ю 3 6000 м слаб. морось 10/10 420 м
[Cu Sc]
+23.7 +22.9 95 +31 +31 очень
душно
1011.1 1004.9 +29.4 0.0
21 23.08 С 1 8000 м дымка 10/10 480 м
[Cu med, cong]
+24.1 +21.8 87 +31 +31 очень
душно
1012.3 1006.2
00 24.08 З 1 8000 м дымка 10/10 480 м
[Cu Sc]
+24.4 +22.3 88 +32 +32 очень
душно
1013.5 1007.3
03 24.08 СЗ 1 8000 м дымка 10/10 480 м
[Cu Sc]
+24.7 +22.2 86 +32 +32 очень
душно
1012.0 1005.9
06 24.08 нст 1 9000 м дымка 9/9 450 м
[]
+24.2 +22.1 88 +31 +31 очень
душно
1011.7 1005.6 +21.0 0.5
09 24.08 10 км 6/4 360 м
[Cu Sc Ac trans]
+26.1 +22.4 80 1013.1 1007.0
12 24.08 З 4 12 км 6/5 360 м
[Cu Sc Ac trans Ci fib]
+27.3 +22.0 73 +35 +41 очень
душно
1013.4 1007.3
15 24.08 СВ 3 15 км 8/6 400 м
[Cu Sc Ac trans Ci fib]
+27.5 +23.3 78 +37 +42 очень
душно
1012.3 1006.2
06 25.08 СВ 2 10 км 5/5 420 м
[Cu med, cong]
+24.3 +22.6 90 +32 +32 очень
душно
1011.7 1005.6 +22.0
09 25.08 В 3 15 км 6/4 420 м
[Cu med, cong Ac trans]
+26.7 +23.6 83 +36 +38 очень
душно
1013.0 1006.9
12 25.08 Ю 3 25 км 6/5 400 м
[Cu Sc Ci sp]
+27.2 +24.1 83 +38 +46 очень
душно
1013.1 1007.0
15 25.08 ЮЗ 6 30 км 6/6 360 м
[Cu Sc Ci fib]
+32.0 +23.0 59 +42 +45 опасность
перегрева
1011.6 1005.6
18 25.08 ЮЗ 4 35 км 6/6 360 м
[Cu Sc]
+28.6 +23.1 72 +38 +39 очень
душно
1011.1 1005.0 +30.7

 

Местоположение метеостанции Сал (Кабо-Верде): широта 16.73 долгота -22.95 высота над уровнем моря 53 м.

В архиве по умолчанию представлена погода в Сале за последнюю неделю. Архивные данные за месяц целиком и за предыдущие месяцы, начиная с января 2011 года, Вы можете получить, выбрав интересующий диапазон дат из раскрывающегося списка и нажав кнопку "Ввод!".


*Определитесь, кто Вы:
робот инопланетянин человек

Внимание! Время в таблицах - всемирное. Для получения местного времени необходимо прибавить поправку, которая равна -1 ч.

Смотрите также архив погоды в соседних городах и на ближайших метеорологических станциях:

Погода в Прае (Кабо-Верде) (212 км)
Погода в Минделу (Кабо-Верде) (219 км)
Погода в Дакаре (Сенегал) (624 км)
Погода в Сент-Луисе (Сенегал) (698 км)
Погода в Диурбеле (Сенегал) (756 км)
Погода в Нуакшоте (Мавритания) (758 км)
Погода в Росо (Мавритания) (761 км)
Погода в Банжуле (Гамбия) (775 км)
Погода в Нуадибу (Мавритания) (779 км)
Погода в Банжуле Half-Die (Гамбия) (788 км)

Пояснения к столбцам:

Ветер - указаны скорость ветра в м/с - средняя за 10 мин, порывы в срок и между сроками (в фигурных скобках) и направление, откуда дует ветер: С - северный, СВ - северо-восточный, В - восточный, ЮВ - юго-восточный, Ю - южный, ЮЗ - юго-западный, З - западный, СЗ - северо-западный.
Видимость - горизонтальная дальность видимости в метрах или километрах. При видимости от 1 до 10 км при отсутствии осадков обычно наблюдается дымка, при ухудшении видимости до 1 км и менее - туман. В сухую погоду видимость может ухудшаться дымом, пылью или мглою.
Явления - указаны атмосферные явления, наблюдавшиеся в срок или в последний час перед сроком; фигурными скобками обозначены явления, наблюдавшиеся между сроками (за 1-3 часа до срока); квадратными скобками обозначены град или гололедные отложения с указанием их диаметра в мм.
Облачность - указаны через наклонную черту общая и нижняя облачность в баллах и высота нижней границы облаков в метрах; квадратными скобками обозначены формы облаков: Ci - перистые, Cs - перисто-слоистые, Cc - перисто-кучевые, Ac - высококучевые, As - высокослоистые, Sc - слоисто-кучевые, Ns - слоисто-дождевые, Cu - кучевые, Cb - кучево-дождевые. Подробнее классификацию облаков см. в Атласе облаков (PDF).
T - Температура воздуха - температура, измеренная на высоте 2 м над землей.
Td - Температура точки росы - температура, при понижении до которой содержащийся в воздухе водяной пар достигнет насыщения.
f - Относительная влажность воздуха - влажноcть воздуха, измеренная на высоте 2 м над землей.
Te - Эффективная температура - температура, которую ощущает одетый по сезону человек в тени. Характеристика душности погоды. При расчете учитывается влияние влажности воздуха и скорости ветра на теплоощущения человека.
Tes - Эффективная температура на солнце - температура, которую ощущает человек, с поправкой на солнечный нагрев. Характеристика знойности погоды. Зависит от высоты солнца над горизонтом, облачности и скорости ветра. Ночью, в пасмурную погоду, а также при ветре 12 м/с и более поправка равна нулю.
P - Атмосферное давление - приведенное к уровню моря атмосферное давление.
Po - Атмосферное давление - измеренное на уровне метеостанции атмосферное давление.
Tmin - Минимальная температура - минимум температуры воздуха на высоте 2 м над землей.
Tmax - Максимальная температура - максимум температуры воздуха на высоте 2 м над землей.
R - Количество осадков - Количество выпавших осадков за период времени, мм. При наведении курсора мыши на число - период времени, за который выпало указанное количество осадков.
R24 - Количество осадков - Количество выпавших осадков за 24 часа, мм.
S - Снежный покров - Высота снежного покрова, см. При наведении курсора мыши на число - состояние снежного покрова и степень покрытия местности в баллах.